Flag for Argentina Weather past 2 weeks in Resistencia, Chaco, Argentina

Now
70 °F

Mostly cloudy.


Feels Like: 70 °F
Forecast: 63 / 72 °F
Wind: No wind

Location: Resistencia Aero.

Current Time: May 26, 2015 at 1:13:30 PM

Latest Report: May 26, 2015 at 12:00 PM


Visibility: N/A

Pressure: 30.01 "Hg

Humidity: 88%

Dew point: 66 °F

Location of ResistenciaLocation

Historic Weather in Resistencia — Graph

°F

Resistencia temperature yesterday

Maximum temperature yesterday: 73 °F (at 5:00 PM)
Minimum temperature yesterday: 63 °F (at 6:00 AM)
Average temperature yesterday: 68 °F

Past Weeks' High & Low Weather Summary

 TemperatureHumidityPressure
High84 °F (May 17, 3:00 PM)100% (May 11, 9:00 PM)30.18 "Hg (May 11, 9:00 PM)
Low52 °F (May 12, 2:00 AM)45% (May 17, 4:00 PM)29.71 "Hg (May 23, 5:00 AM)
Average70 °F86%30.00 "Hg
* Reported May 11 12:00 Noon — May 26 12:00 Noon, Resistencia, Weather by CustomWeather, © 2015

Note: Actual official high and low records may vary slightly from our data, if they occured in-between our weather recording intervals... More about our weather records

Advertising

Resistencia weather history for previous 24 hours

 ConditionsComfort  
Time TempWeatherWind HumidityBarometerVisibility
12:00 PM
Tue, May 26
70 °FMostly cloudy.No wind88%30.01 "HgN/A
11:00 AM70 °FMostly cloudy.2 mph88%30.01 "HgN/A
10:00 AM68 °FBroken clouds.3 mph94%30.01 "HgN/A
9:00 AM66 °FMostly cloudy.2 mph94%30.01 "HgN/A
8:00 AM66 °FMostly cloudy.No wind94%30.01 "HgN/A
7:00 AM64 °FMostly cloudy.2 mph100%29.98 "HgN/A
6:00 AM64 °FPartly cloudy.2 mph100%29.98 "HgN/A
5:00 AM66 °FPassing clouds.No wind94%29.98 "HgN/A
4:00 AM66 °FMostly cloudy.2 mph94%29.98 "HgN/A
3:00 AM66 °FMostly cloudy.No wind94%29.98 "HgN/A
2:00 AM66 °FMostly cloudy.3 mph94%29.98 "HgN/A
1:00 AM68 °FDrizzle. Mostly cloudy.5 mph88%30.01 "Hg4 mi
12:00 AM68 °FOvercast.3 mph88%30.01 "HgN/A
11:00 PM
Mon, May 25
68 °FOvercast.6 mph88%29.98 "HgN/A
10:00 PM68 °FMostly cloudy.5 mph88%29.98 "HgN/A
8:00 PM70 °FOvercast.3 mph88%29.98 "HgN/A
7:00 PM70 °FMostly cloudy.No wind88%29.98 "HgN/A
6:00 PM72 °FClear.No wind83%29.98 "Hg10 mi
5:00 PM73 °FBroken clouds.2 mph78%29.95 "HgN/A
4:00 PM72 °FMore clouds than sun.3 mph78%29.98 "HgN/A
2:00 PM72 °FOvercast.2 mph78%29.98 "HgN/A
1:00 PM70 °FOvercast.5 mph83%30.01 "HgN/A
Weather by CustomWeather, © 2015

See weather overviewHow to use our weather pages